Location: Evangelical Free Church
(43.0866°N, 93.9972°W)
Time: 12:00:53
(UTC+00:00)

Daily predictions for brighter satellites

Satellite Brightness Start Highest point End
(mag) Time Altitude Azimuth Time Altitude Azimuth Time Altitude Azimuth
Lacrosse 5 3.8 12:01:46 11° NNW 12:04:48 17° N 12:08:06 10° NE
Meteor 1-26 Rocket 4.2 12:03:32 10° NNW 12:09:04 58° W 12:14:27 10° S
Cosmos 2360 Rocket 2.9 12:05:02 14° NW 12:09:08 33° WSW 12:14:07 10° SSW
Helios 1A Rocket 2.8 12:06:56 10° N 12:11:01 68° WNW 12:15:01 10° SSW
STARLINK-29 4.5 12:09:38 14° NW 12:12:08 32° NNE 12:15:18 10° E
FALCON 9 DEB 4.4 12:10:06 10° SSW 12:12:12 27° SE 12:14:19 10° ENE
BREEZE-M DEB (TANK) 4.5 12:01:15 10° SW 12:14:23 60° SSE 12:18:10 10° ENE
FALCON 9 DEB 4.3 12:12:20 14° NW 12:14:55 35° NNE 12:18:06 10° E
Cosmos 1818 3.6 12:10:00 10° SSW 12:15:27 88° ESE 12:20:57 10° NE
Cosmos 2237 Rocket 3.5 12:11:03 10° NNW 12:16:22 39° ENE 12:21:37 10° SE
SL-16 R/B 4.0 12:17:15 11° W 12:17:15 11° W 12:18:50 10° WSW
Starlink Launch 2 leader 4.1 12:15:23 10° SSW 12:17:39 33° SE 12:19:55 10° ENE
NOSS 0 Rocket 4.5 12:11:48 10° NNW 12:18:01 60° ENE 12:24:10 10° SE
Cosmos 972 4.4 12:13:24 10° SSW 12:18:21 82° WNW 12:23:47 10° NNE
METEOR-M 4.2 12:13:20 10° N 12:18:33 55° WNW 12:23:44 10° SSW
COSMOS 2428 2.7 12:13:29 10° NNW 12:19:13 83° WSW 12:24:57 10° SSE
Tsikada Rocket 4.5 12:13:27 10° NNW 12:19:17 39° W 12:25:01 10° SSW
Cosmos 1606 3.7 12:16:50 10° NW 12:19:59 25° W 12:23:09 10° SW
STARLINK 1050 4.2 12:17:53 10° SSW 12:20:32 37° SE 12:23:11 10° ENE
Cosmos 1825 3.8 12:21:07 15° WNW 12:21:07 15° WNW 12:23:02 10° NW
FALCON 9 DEB 3.9 12:18:41 10° SSW 12:20:56 35° SE 12:23:12 10° ENE
Starlink Launch 2 trailer 3.8 12:19:01 10° SSW 12:21:18 37° SE 12:23:38 10° ENE
STARLINK 1055 4.2 12:18:59 10° SSW 12:21:38 38° SE 12:24:18 10° ENE
Cosmos 2322 Rocket 3.9 12:21:32 12° W 12:22:24 12° W 12:24:33 10° WSW
STARLINK 1022 4.1 12:20:03 10° SSW 12:22:43 39° SE 12:25:24 10° ENE
Gbstr 26 Del rocket 4.2 12:20:12 12° NW 12:23:00 24° N 12:26:07 10° ENE
CZ-2C R/B 4.0 12:21:04 10° NW 12:23:03 13° WNW 12:23:16 12° WNW
STARLINK 1042 4.1 12:20:52 10° SSW 12:23:33 40° SE 12:26:16 10° ENE
FALCON 9 DEB 3.7 12:21:31 10° SSW 12:23:49 38° SE 12:26:08 10° ENE
STARLINK 1056 4.0 12:22:05 10° SSW 12:24:46 41° SE 12:27:28 10° ENE
Cosmos 494 Rocket 4.4 12:20:14 10° NW 12:25:09 41° WSW 12:29:59 10° S
BREEZE-M DEB (TANK) 2.8 12:23:49 13° NW 12:25:12 21° N 12:26:57 10° ENE
STARLINK 1054 3.9 12:23:16 10° SSW 12:25:59 42° SE 12:28:43 10° ENE
STARLINK 1062 3.9 12:24:10 10° SSW 12:26:53 43° SE 12:29:36 10° ENE
Cosmos 1707 Rocket 3.7 12:22:50 10° N 12:27:20 83° E 12:31:48 10° S
Okean O Rocket 1.8 12:24:01 10° N 12:28:11 45° WNW 12:32:19 10° SW
STARLINK 1053 3.8 12:25:47 10° SW 12:28:31 45° SE 12:31:16 10° ENE
STARLINK 1061 3.8 12:26:22 10° SW 12:29:07 46° SE 12:31:53 10° ENE
Cosmos 1805 Rocket 3.6 12:24:57 10° SSW 12:29:12 55° W 12:33:29 10° N
Cosmos 2228 Rocket 4.1 12:26:13 10° NNW 12:30:07 28° W 12:33:59 10° SSW
STARLINK-46 4.1 12:28:07 13° W 12:30:11 25° SW 12:32:42 10° SSE
STARLINK 1067 3.7 12:27:35 10° SW 12:30:21 48° SE 12:33:07 10° ENE
STARLINK 1058 3.6 12:28:37 10° SW 12:31:23 49° SE 12:34:09 10° ENE
SJ-7 4.4 12:28:01 10° N 12:32:08 61° WNW 12:36:08 10° SSW
STARLINK 1043 3.6 12:29:43 10° SW 12:32:30 51° SE 12:35:19 10° ENE
ADEOS Rocket 4.0 12:25:18 10° SSE 12:32:52 64° ENE 12:39:59 10° N
STARLINK 1065 3.5 12:30:45 10° SW 12:33:32 52° SE 12:36:20 10° ENE
FENGYUN 3A 4.0 12:28:59 10° N 12:34:04 43° WNW 12:39:06 10° SW
ATLAS 2AS CENTAUR R/B 4.3 12:30:47 10° WNW 12:34:33 15° WSW 12:38:12 10° SW
STARLINK 1063 3.4 12:32:08 10° SW 12:34:54 54° SE 12:37:43 10° ENE
STARLINK 1027 3.4 12:32:35 10° SW 12:35:24 55° SE 12:38:14 10° ENE
STARLINK 1028 3.4 12:32:48 10° SW 12:35:37 55° SE 12:38:27 10° ENE
STARLINK 1021 3.4 12:32:59 10° SW 12:35:48 56° SE 12:38:38 10° ENE
STARLINK 1064 3.4 12:33:02 10° SW 12:35:50 55° SE 12:38:39 10° ENE
STARLINK 1019 3.4 12:33:12 10° SW 12:36:01 56° SE 12:38:52 10° ENE
STARLINK 1012 3.4 12:33:24 10° SW 12:36:13 56° SE 12:39:03 10° ENE
STARLINK 1010 3.4 12:33:36 10° SW 12:36:25 57° SE 12:39:15 10° ENE
STARLINK 1026 3.3 12:33:50 10° SW 12:36:39 57° SE 12:39:29 10° ENE
STARLINK 1013 3.3 12:34:02 10° SW 12:36:52 57° SE 12:39:42 10° ENE
STARLINK 1041 3.3 12:34:10 10° SW 12:36:58 57° SE 12:39:48 10° ENE
STARLINK 1009 3.3 12:34:13 10° SW 12:37:02 58° SE 12:39:53 10° ENE
STARLINK 1034 3.3 12:34:18 10° SW 12:37:04 57° SE 12:39:51 10° ENE
STARLINK 1015 3.3 12:34:25 10° SW 12:37:14 58° SE 12:40:05 10° ENE
STARLINK 1016 3.3 12:34:38 10° SW 12:37:28 58° SE 12:40:19 10° ENE
STARLINK 1008 3.3 12:34:50 10° SW 12:37:40 59° SE 12:40:31 10° ENE
STARLINK 1014 3.3 12:35:01 10° SW 12:37:51 59° SE 12:40:41 10° ENE
STARLINK 1025 3.3 12:35:14 10° SW 12:38:04 59° SE 12:40:55 10° ENE
IRS-1C Rocket 4.3 12:32:48 10° NNE 12:38:06 78° ESE 12:43:21 10° S
STARLINK 1038 3.3 12:35:20 10° SW 12:38:09 59° SE 12:40:59 10° ENE
STARLINK 1045 3.3 12:35:21 10° SW 12:38:10 59° SE 12:41:01 10° ENE
STARLINK 1017 3.3 12:35:27 10° SW 12:38:17 59° SE 12:41:08 10° ENE
STARLINK 1023 3.3 12:35:38 10° SW 12:38:29 60° SE 12:41:21 10° ENE
STARLINK 1007 3.2 12:35:51 10° SW 12:38:42 60° SE 12:41:32 10° ENE
STARLINK 1048 3.2 12:36:04 10° SW 12:38:54 61° SE 12:41:45 10° ENE
STARLINK 1049 3.2 12:36:12 10° SW 12:39:03 61° SE 12:41:54 10° ENE
CZ-4 R/B 4.3 12:36:18 10° NE 12:39:03 19° E 12:41:47 10° SE
Cosmos 1812 4.0 12:35:24 10° N 12:39:07 43° ENE 12:42:47 10° SSE
STARLINK 1051 3.2 12:36:26 10° SW 12:39:16 61° SE 12:42:08 10° ENE
STARLINK 1046 3.2 12:36:29 10° SW 12:39:18 61° SE 12:42:09 10° ENE
STARLINK 1068 3.2 12:36:33 10° SW 12:39:24 61° SE 12:42:14 10° ENE
STARLINK 1037 3.2 12:36:39 10° SW 12:39:30 62° SE 12:42:21 10° ENE
STARLINK 1059 3.2 12:36:52 10° SW 12:39:43 62° SE 12:42:34 10° ENE
STARLINK 1057 3.2 12:37:05 10° SW 12:39:55 62° SE 12:42:47 10° ENE
STARLINK 1052 3.2 12:37:18 10° SW 12:40:09 63° SE 12:43:00 10° ENE
STARLINK 1039 3.1 12:37:38 10° SW 12:40:28 63° SE 12:43:19 10° ENE
STARLINK 1029 3.1 12:37:41 10° SW 12:40:32 63° SE 12:43:24 10° ENE
STARLINK 1060 3.1 12:37:51 10° SW 12:40:41 64° SE 12:43:34 10° ENE
STARLINK 1030 3.1 12:38:06 10° SW 12:40:57 64° SE 12:43:49 10° ENE
STARLINK 1020 3.1 12:38:18 10° SW 12:41:08 64° SE 12:44:01 10° ENE
STARLINK 1033 3.1 12:38:56 10° SW 12:41:47 65° SE 12:44:40 10° ENE
STARLINK 1031 3.1 12:39:10 10° SW 12:42:01 66° SE 12:44:53 10° ENE
STARLINK 1024 3.1 12:39:21 10° SW 12:42:13 66° SE 12:45:07 10° ENE
RESURS DK-1 2.4 12:38:06 10° NNW 12:42:15 87° WSW 12:46:24 10° SSE
STARLINK 1047 3.0 12:39:28 10° SW 12:42:17 66° SE 12:45:09 10° ENE
STARLINK 1035 3.1 12:39:31 10° SW 12:42:23 67° SE 12:45:17 10° ENE
STARLINK 1032 3.1 12:39:42 10° SW 12:42:34 67° SE 12:45:27 10° ENE
STARLINK 1036 3.0 12:39:45 10° SW 12:42:36 67° SE 12:45:28 10° ENE
Cosmos 1980 4.1 12:37:08 10° NNW 12:42:47 66° ENE 12:48:24 10° SE
STARLINK 1011 3.1 12:39:58 10° SW 12:42:49 67° SE 12:45:43 10° ENE
USA 234 4.4 12:41:34 10° ENE 12:47:04 30° NNE 12:52:34 10° NW
Lacrosse 5 rocket 1.9 12:43:57 10° WNW 12:47:14 34° SW 12:50:31 10° SSE
Cosmos 1633 2.7 12:45:18 10° SSW 12:48:49 49° WNW 12:52:22 10° N
CORIOLIS 4.5 23:12:44 10° SE 23:17:50 44° ENE 23:22:59 10° N
Cosmos 1356 Rocket 3.8 23:13:39 10° SSW 23:17:51 73° W 23:22:08 10° N
SeaSat 1 3.9 23:14:57 10° E 23:18:12 18° NE 23:21:28 10° N
Cosmos 1666 Rocket 3.6 23:14:27 10° N 23:18:45 57° E 23:23:00 10° SSE
Cosmos 397 4.4 23:14:59 10° NNW 23:19:02 68° NE 23:23:23 10° SE
BREEZE-M DEB (TANK) 3.9 23:14:08 10° W 23:24:30 46° NNW 23:27:51 10° ENE
Okean O Rocket 2.9 23:21:10 10° S 23:25:23 46° W 23:29:36 10° NNW
Cosmos 923 Rocket 4.2 23:20:33 10° SSW 23:25:45 76° WNW 23:30:59 10° NNE
COSMO-SKYMED 1 4.0 23:22:57 10° NE 23:25:58 18° E 23:28:59 10° SE
YAOGAN 6 4.2 23:24:58 10° E 23:26:52 14° ENE 23:28:45 10° NNE
CZ-4 R/B 3.0 23:24:54 10° E 23:27:19 15° ENE 23:29:43 10° NNE
Cosmos 1862 3.2 23:26:08 10° N 23:30:08 68° E 23:34:07 10° SSE
Cosmos 1624 Rocket 4.3 23:25:00 10° N 23:30:10 48° ENE 23:35:18 10° SE
COSMOS 2455 4.4 23:28:02 10° SE 23:31:14 15° ESE 23:34:09 11° ENE
Cosmos 2056 Rocket 3.7 23:26:56 10° N 23:31:55 47° ENE 23:36:55 10° SE
Cosmos 1933 4.4 23:30:52 10° SE 23:34:14 25° E 23:37:35 10° NNE
Cosmos 2034 Rocket 4.1 23:29:03 10° N 23:35:21 58° ENE 23:41:36 10° SSE
PSLV R/B 4.4 23:33:20 10° N 23:37:32 67° WNW 23:41:41 10° SSW
Cosmos 1980 Rocket 2.2 23:33:08 10° SSW 23:38:48 76° ESE 23:44:31 10° NNE
ISS -2.0 23:37:16 10° S 23:39:43 19° SE 23:41:34 13° E
H-2A R/B 2.6 23:36:57 10° SSE 23:40:44 70° ENE 23:44:30 10° N
COBE Rocket 3.9 23:36:22 10° NNE 23:41:01 56° E 23:45:35 10° S
SL-16 R/B 3.3 23:38:14 10° SSE 23:42:43 25° ESE 23:46:39 12° NE
Lacrosse 4 Rocket 3.4 23:41:20 10° WSW 23:44:38 24° NW 23:47:57 10° N
BREEZE-M DEB (TANK) 3.5 23:41:51 10° WNW 23:44:46 24° N 23:45:59 16° NE
YAOGAN 1 3.8 23:43:30 10° ESE 23:46:42 21° ENE 23:49:54 10° NNE
Cosmos 2322 Rocket 3.3 23:43:19 10° SSE 23:47:37 23° E 23:50:43 15° ENE
Cosmos 1470 Rocket 3.6 23:45:59 10° N 23:50:25 56° E 23:54:47 10° SSE
Envisat 3.1 23:46:44 10° SSE 23:51:39 52° ENE 23:56:35 10° N
SL-8 R/B 3.7 23:47:11 10° WSW 23:52:01 82° SSE 23:55:37 18° ENE
Cosmos 158 Rocket 3.9 23:47:05 10° SSW 23:52:22 80° ESE 23:57:31 10° NNE
